Home > Weather > Weymouth > Past weeks

Flag for United Kingdom Weather for the Past 2 Weeks in Weymouth, England, United Kingdom

Now
45 °F

Cool.


Feels Like: 41 °F
Forecast: 36 / 47 °F
Wind: 7 mph from West

Location: Isle Of Portland

Current Time: Feb 11, 2016 at 11:00:27 AM

Latest Report: Feb 11, 2016 at 10:00 AM


Visibility: 12 mi

Pressure: 29.67 "Hg

Humidity: 78%

Dew point: 38 °F

Location of WeymouthLocation

Historic Weather in Weymouth — Graph

°F

Weymouth Temperature Yesterday

Maximum temperature yesterday: 47 °F (at 4:00 PM)
Minimum temperature yesterday: 43 °F (at 10:00 PM)
Average temperature yesterday: 45 °F

High & Low Weather Summary for the Past Weeks

 TemperatureHumidityPressure
High53 °F (Jan 31, 2:00 PM)100% (Jan 27, 9:00 AM)30.43 "Hg (Jan 27, 9:00 AM)
Low40 °F (Feb 11, 6:00 AM)61% (Jan 28, 12:00 PM)29.12 "Hg (Feb 6, 8:00 PM)
Average48 °F85%29.83 "Hg
* Reported Jan 27 9:00 AM — Feb 11 9:00 AM, Weymouth, Weather by CustomWeather, © 2016

Note: Actual official high and low records may vary slightly from our data, if they occured in-between our weather recording intervals... More about our weather records

Advertising

Weymouth Weather History for the Previous 24 Hours

 ConditionsComfort  
Time TempWeatherWind HumidityBarometerVisibility
9:00 AM
Thu, Feb 11
44 °FQuite cool.6 mph82%29.67 "Hg22 mi
8:00 AM41 °FQuite cool.3 mph88%29.67 "Hg19 mi
7:00 AM41 °FQuite cool.3 mph88%29.67 "Hg17 mi
6:00 AM40 °FChilly.6 mph85%29.67 "Hg19 mi
5:00 AM41 °FQuite cool.5 mph82%29.67 "Hg22 mi
4:00 AM40 °FChilly.3 mph87%29.68 "Hg14 mi
3:00 AM40 °FChilly.2 mph86%29.68 "Hg11 mi
1:00 AM43 °FQuite cool.9 mph86%29.68 "Hg14 mi
12:00 AM43 °FQuite cool.9 mph84%29.67 "Hg17 mi
11:00 PM
Wed, Feb 10
43 °FQuite cool.9 mph82%29.67 "Hg16 mi
10:00 PM43 °FQuite cool.9 mph81%29.66 "Hg12 mi
9:00 PM44 °FQuite cool.13 mph77%29.65 "Hg13 mi
8:00 PM43 °FQuite cool.8 mph81%29.64 "Hg9 mi
7:00 PM45 °FCool.9 mph77%29.62 "Hg15 mi
6:00 PM46 °FCool.12 mph76%29.60 "Hg25 mi
5:00 PM46 °FCool.15 mph77%29.58 "Hg28 mi
4:00 PM47 °FCool.17 mph74%29.57 "Hg31 mi
3:00 PM47 °FCool.15 mph74%29.55 "Hg18 mi
2:00 PM46 °FCool.16 mph76%29.54 "Hg19 mi
1:00 PM45 °FCool.22 mph80%29.53 "Hg28 mi
12:00 PM44 °FQuite cool.22 mph82%29.50 "Hg19 mi
Weather by CustomWeather, © 2016

See weather overviewHow to use our weather pages